This demonstration page uses our WeatherBlox Daily Observations layout. Learn more.

Left ArrowRight Arrow

39.92423, -83.80882

Hourly Observations for September 10, 2015

Temp ( °F °C ) Dew Point ( °F °C ) Humidity (%) Winds ( mph kmh ) Pressure ( in mb ) Visibility ( mi km ) Precip ( " mm )
12:56 am 00:56 Clear 69 20.5 66 18.8 90 90 NE 8 13 29.93 1013 10 16.0934 0 0
1:56 am 01:56 Clear 67 19.4 66 18.8 96 96 NE 7 11 29.92 1013 10 16.0934 0 0
2:56 am 02:56 Partly Cloudy 68 20 66 18.8 93 93 N 6 9 29.92 1013 10 16.0934 0 0
3:56 am 03:56 Cloudy 68 20 66 18.8 93 93 NE 7 11 29.91 1013 10 16.0934 0 0
4:56 am 04:56 Cloudy 68 20 65 18.3 90 90 NE 9 15 29.91 1013 10 16.0934 0 0
5:56 am 05:56 Mostly Cloudy 66 18.8 64 17.7 93 93 NE 7 11 29.91 1013 10 16.0934 0 0
6:56 am 06:56 Mostly Cloudy 65 18.3 62 16.6 90 90 NE 8 13 29.92 1013 10 16.0934 0 0
7:43 am 07:43 Mostly Cloudy 64 18 63 17 94 94 NNE 7 11 29.94 1014 10 16.0934 0 0
7:56 am 07:56 Cloudy 65 18.3 61 16.1 87 87 NNE 8 13 29.94 1014 10 16.0934 0 0
8:56 am 08:56 Partly Cloudy 66 18.8 60 15.5 81 81 NNE 8 13 29.95 1014 10 16.0934 0 0
9:56 am 09:56 Sunny 69 20.5 60 15.5 73 73 NNE 9 15 29.94 1014 10 16.0934 0 0
10:56 am 10:56 Sunny 74 23.3 59 15 60 60 NNE 13 20 29.94 1014 10 16.0934 0 0
12:56 pm 12:56 Sunny 80 26.6 61 16.1 53 53 N 8 13 29.91 1013 10 16.0934 0 0
1:56 pm 13:56 Sunny 81 27.2 60 15.5 49 49 VRB 5 7 29.9 1013 10 16.0934 0 0
2:56 pm 14:56 Sunny 82 27.7 58 14.4 44 44 NNW 8 13 29.88 1012 10 16.0934 0 0
3:56 pm 15:56 Sunny 84 28.8 57 13.8 40 40 NNE 8 13 29.86 1011 10 16.0934 0 0
4:56 pm 16:56 Sunny 84 28.8 56 13.3 39 39 NNW 5 7 29.85 1011 10 16.0934 0 0
5:56 pm 17:56 Sunny 83 28.3 54 12.2 37 37 N 8 13 29.85 1011 10 16.0934 0 0
6:56 pm 18:56 Sunny 80 26.6 53 11.6 39 39 N 8 13 29.85 1011 10 16.0934 0 0
7:56 pm 19:56 Clear 72 22.2 53 11.6 51 51 NNW 7 11 29.88 1012 10 16.0934 0 0
8:56 pm 20:56 Clear 69 20.5 53 11.6 57 57 NNW 5 7 29.89 1012 10 16.0934 0 0
9:56 pm 21:56 Clear 65 18.3 54 12.2 68 68 E 3 6 29.9 1013 10 16.0934 0 0
10:56 pm 22:56 Clear 62 16.6 54 12.2 75 75 Calm 29.9 1013 10 16.0934 0 0
11:56 pm 23:56 Clear 60 15.5 55 12.7 84 84 Calm 29.9 1013 10 16.0934 0 0

Powered by AerisWeather